map of LIL home
Great Circle Mapper logo
LIL - Airport
Location
City:  Lille, France
Name:Lesquin
ICAO / IATA:LFQQ / LIL

Details
Type:Airport (Aerodrome, Airfield)
Use:Public/Civil, International (customs port of entry)
Latitude:5033'48"N (50.563333)
Longitude:305'13"E (3.086944)
Elevation:157 ft (48 m)
Variation:0.2E (WMM2010 magnetic declination)
Runways:2
Longest:9268 × 148 ft (2825 × 45 m)

Time
Time Zone:UTC+1 (DST+2)
Local Time:

Weather
METAR:LFQQ 231900Z 29009KT 3000 -DZ BKN004 12/11 Q1015 NOSIG
TAF:LFQQ 231700Z 2318/2424 21003KT 9999 BKN025 OVC100
TEMPO 2319/2405 1500 RADZ OVC003
BECMG 2319/2321 34010KT
BECMG 2404/2406 BKN020
BECMG 2412/2414 04007KT

Related Locations
Nearby:
Farthest:CHT: 11963 mi / 19252 km
Waitangi [Tuuta], Chatham Islands, NZ

Find:

   beyond  
but within

Other Information
Maps:
NOTAMs:
Links:
Sources:

  
flag of France   

Sectional Chart

Flight Planning
at skyvector.com

Satellite Image

Google Maps Satellite View

 

Copyright © 2004-2014 Karl L. Swartz. All rights reserved.
The Great Circle Mapper name and logo are trademarks of the Great Circle Mapper.
All other trademarks mentioned herein belong to their respective owners.
Please see credits for attibutions and further copyright information.

  Follow gcmap on Facebook Follow gcmap on Twitter

hCard Microformat

Geo Microformat